7 * 24
多渠道服务支持
NINGXIA-1 3(宁夏一号03星)是中国宁夏金柜信息技术有限公司所有、中国航天东方红卫星有限公司研制的商用信号监测卫星,隶属于宁夏一号卫星星座。该星于2019年11月13日由长征六号运载火箭发射,与同批次四颗宁夏一号卫星共同组成全球电磁频谱信号监测系统,为商业电磁情报收集提供服务,推动中国商业航天监测体系建设。
中国
(CN)
| 数据来源 | 国际轨道数据 |
| 星历时间: | 2026-05-24T12:58:31+0800 21小时前 查看轨道信息 |
| 半长轴: | 7264.846km |
| 偏心率: | 0.0009444 |
| 轨道倾角: | 45.000° |
| 近地点辐角 | 30.940° |
| 升交点赤经 | 285.561° |
| 平近点角 | 329.199° |
| 近地点: | 879.848km |
| 远地点: | 893.57km |
| 周期: | 102.707分钟 |
| 每日圈数: | 14.02049 |